Tracking 19792 objects as of 15-Jul-2019
HD Live streaming from Space Station
objects crossing your sky now

COSMOS 1275 DEB

Track COSMOS 1275 DEB now!
10-day predictions


NORAD ID: 13816
Int'l Code: 1981-053HP
Perigee: 858.0 km
Apogee: 1,084.2 km
Inclination: 83.0 °
Period: 104.3 minutes
Semi major axis: 7342 km
RCS: 0.0104 m2 (small)
Launch date: June 4, 1981
Source: Commonwealth of Independent States (former USSR) (CIS)
Launch site: PLESETSK MISSILE AND SPACE COMPLEX (PKMTR)

Note: This is SATELLITE DEBRIS
aabbcc
Your satellite tracking list
Your tracking list is empty




NASA's NSSDC Master Catalog

Two Line Element Set (TLE):
1 13816U 81053HL  19196.09873221  .00000697  00000-0  60004-3 0  9999
2 13816  82.9889 159.9094 0154008 145.1415 337.9145 13.79978402826111
Source of the keplerian elements: AFSPC